Powrót do katalogu

STARLINK-35889

AktywnyŁącznośćVLEO
NORAD 67189·PAYLOAD·🇺🇸 United States

Wystrzelony Dec 17, 2025 z Cape Canaveral Space Force Station

Loading…

Następne Przeloty (najbliższe 24 godziny)

TLE

ŚwieżeSource: CelesTrak SupGP

Epoka: Sep 15, 2026, 02:42 UTC

1 67189C 25303AC  26258.11298611  .00041981  00000+0  15203-2 0  2589
2 67189  43.0006 321.3047 0001534 263.2561 355.7685 15.27561817    17

Śledź STARLINK-35889 w czasie rzeczywistym z AllMySat

Download on the App Store